This demonstration page uses our WeatherBlox Daily Observations layout. Learn more.

Left ArrowRight Arrow

Hourly Observations for June 14, 2021

Temp ( °F °C ) Dew Point ( °F °C ) Humidity (%) Winds ( mph kmh ) Pressure ( in mb ) Visibility ( mi km ) Precip ( " mm )
12:53 am 00:53 Clear 66 18.9 49 9.4 54 54 ENE 12 19 29.91 1013 10 16 N/A
1:53 am 01:53 Clear 62 16.7 50 10 65 65 ENE 14 22 29.90 1012 10 16 N/A
2:53 am 02:53 Clear 64 17.8 49 9.4 58 58 E 15 24 29.88 1012 10 16 N/A
3:53 am 03:53 Clear 63 17.2 48 8.9 58 58 ENE 13 20 29.89 1012 10 16 N/A
4:53 am 04:53 Clear 61 16.1 48 8.9 63 63 ENE 13 20 29.90 1013 10 16 N/A
5:53 am 05:53 Sunny 60 15.6 48 8.9 65 65 ENE 15 24 29.91 1013 10 16 N/A
6:53 am 06:53 Sunny 62 16.7 49 9.4 62 62 E 10 17 29.91 1013 10 16 N/A
7:53 am 07:53 Sunny 68 20 50 10 53 53 ENE 18 30 29.89 1012 10 16 N/A
8:53 am 08:53 Sunny 72 22.2 52 11.1 50 50 ENE 13 20 29.90 1013 10 16 N/A
9:53 am 09:53 Sunny 79 26.1 55 12.8 44 44 E 21 33 29.87 1011 10 16 N/A
10:53 am 10:53 Sunny 89 31.7 55 12.8 31 31 ESE 21 33 29.84 1011 10 16 N/A
11:53 am 11:53 Sunny 94 34.4 51 10.6 23 23 E 23 37 29.82 1010 10 16 N/A
12:53 pm 12:53 Sunny 96 35.6 55 12.8 25 25 ESE 18 30 29.80 1009 10 16 N/A
1:53 pm 13:53 Sunny 97 36.1 58 14.4 27 27 ESE 22 35 29.78 1009 10 16 N/A
2:53 pm 14:53 Sunny 99 37.2 57 13.9 25 25 SE 18 30 29.78 1008 10 16 N/A
3:53 pm 15:53 Sunny 100 37.8 56 13.3 23 23 SE 17 28 29.77 1008 10 16 N/A
4:53 pm 16:53 Sunny 101 38.3 51 10.6 19 19 SE 13 20 29.76 1008 10 16 N/A
5:53 pm 17:53 Sunny 101 38.3 51 10.6 19 19 ESE 15 24 29.75 1008 10 16 N/A
6:53 pm 18:53 Sunny 97 36.1 56 13.3 25 25 ESE 20 31 29.75 1008 10 16 N/A
7:53 pm 19:53 Sunny 94 34.4 56 13.3 28 28 E 18 30 29.75 1007 10 16 N/A
8:53 pm 20:53 Sunny 87 30.6 58 14.4 37 37 E 20 31 29.75 1008 10 16 N/A
9:53 pm 21:53 Clear 83 28.3 58 14.4 43 43 E 18 30 29.75 1008 10 16 N/A
10:53 pm 22:53 Clear 80 26.7 57 13.9 45 45 E 21 33 29.75 1008 10 16 N/A
11:53 pm 23:53 Clear 78 25.6 57 13.9 48 48 E 20 31 29.82 1010 10 16 N/A

Powered by AerisWeather